Regional Weather Roundup
Issued by NWS

Home | Current Version | Previous Version | Text Only | Print | Product List | Glossary On
Versions: 1 2 3 4 5 6 7 8 9 10 11 12 13 14 15 16 17 18 19 20 21 22 23 24 25 26 27 28 29 30 31 32 33 34 35 36 37 38 39 40 41 42 43 44 45 46 47 48 49 50
000
ASUS45 KPSR 231210
RWRAZ

ARIZONA REGIONAL HOURLY WEATHER ROUNDUP
NATIONAL WEATHER SERVICE PHOENIX AZ
500 AM MST SUN NOV 23 2014

NOTE: FAIR INDICATES FEW OR NO CLOUDS BELOW 12,000 FEET WITH NO
SIGNIFICANT WEATHER AND/OR OBSTRUCTIONS TO VISIBILITY.

AZZ001>003-036-231300-
NORTHWEST ARIZONA

CITY           SKY/WX    TMP DP  RH WIND       PRES   REMARKS
BULLHEAD CITY  PTCLDY    61  32  33 N12       30.03R
KINGMAN        CLEAR     49  26  41 CALM      30.06R
6HR MIN TEMP:  44; 6HR MAX TEMP:  56;

$$

AZZ004>008-015-016-018-231300-
NORTH CENTRAL ARIZONA

CITY           SKY/WX    TMP DP  RH WIND       PRES   REMARKS
GRAND CANYON   CLEAR     36  22  56 VRB7      30.00R WCI  30
6HR MIN TEMP:  27; 6HR MAX TEMP:  37;

PRESCOTT       PTCLDY    47  27  45 W12       30.01R
6HR MIN TEMP:  44; 6HR MAX TEMP:  48;

FLAGSTAFF      CLEAR     36  23  59 W9        29.98S WCI  29
6HR MIN TEMP:  35; 6HR MAX TEMP:  38;

PAYSON         CLEAR     37  21  52 CALM      30.01R
$$

AZZ009>014-017-231300-
NORTHEAST ARIZONA

CITY           SKY/WX    TMP DP  RH WIND       PRES   REMARKS
WINSLOW        CLEAR     42  24  49 SW14      29.93S
6HR MIN TEMP:  42; 6HR MAX TEMP:  48;

SAINT JOHNS    CLEAR     43  23  45 W20G26    29.92R
6HR MIN TEMP:  42; 6HR MAX TEMP:  49;

SHOW LOW       CLEAR     36  19  51 S15       30.00R WCI  26
$$

AZZ023-231300-
GREATER PHOENIX AREA

CITY           SKY/WX    TMP DP  RH WIND       PRES   REMARKS
PHOENIX        PTCLDY    50  34  54 E5        29.94R
6HR MIN TEMP:  50; 6HR MAX TEMP:  57;

BUCKEYE          N/A     43  25  49 N7        29.95S
LUKE AFB       PTCLDY    45  30  57 N5        29.93S
DEER VALLEY    MOCLDY    46  28  49 CALM      29.94R
6HR MIN TEMP:  45; 6HR MAX TEMP:  53;

SCOTTSDALE     PTCLDY    47  33  58 CALM      29.96R
6HR MIN TEMP:  47; 6HR MAX TEMP:  54;

MESA-GATEWAY   MOCLDY    46  28  49 SE6       29.96S
$$

AZZ027-028-231300-
SOUTHWEST MARICOPA COUNTY AND PINAL COUNTY

CITY           SKY/WX    TMP DP  RH WIND       PRES   REMARKS
CASA GRANDE    CLEAR     43  25  49 MISG      29.95S
6HR MIN TEMP:  43; 6HR MAX TEMP:  48;

$$

AZZ503-504-507>509-231300-
SOUTHEAST ARIZONA

CITY           SKY/WX    TMP DP  RH WIND       PRES   REMARKS
TUCSON         PTCLDY    45  29  53 CALM      29.99F
6HR MIN TEMP:  44; 6HR MAX TEMP:  50;

DAVIS-MONTHAN  PTCLDY    44  29  54 SE5       29.97F
6HR MIN TEMP:  44; 6HR MAX TEMP:  49;

NOGALES        CLEAR     41  30  65 SE3       30.02S
6HR MIN TEMP:  36; 6HR MAX TEMP:  47;

SIERRA VISTA   CLEAR     44  26  49 VRB3      29.99F
6HR MIN TEMP:  40; 6HR MAX TEMP:  46;

DOUGLAS        CLEAR     37  25  61 SE8       30.00F WCI  31
6HR MIN TEMP:  34; 6HR MAX TEMP:  40;

SAFFORD        CLEAR     39  22  50 E6        29.93R WCI  35
6HR MIN TEMP:  39; 6HR MAX TEMP:  53;

$$

AZZ020-021-025-026-031-231300-
SOUTHWEST ARIZONA

CITY           SKY/WX    TMP DP  RH WIND       PRES   REMARKS
YUMA           MOCLDY    57  44  62 CALM      29.94R
6HR MIN TEMP:  56; 6HR MAX TEMP:  63;

$$

CAZ031-033-041-043-047-048-061-231300-
SOUTHERN CALIFORNIA

CITY           SKY/WX    TMP DP  RH WIND       PRES   REMARKS
DOWNTOWN L.A.  CLEAR     60  54  80 CALM      30.04S
6HR MIN TEMP:  58; 6HR MAX TEMP:  62;

L.A. AIRPORT   PTCLDY    60  50  69 NE9       30.05S
6HR MIN TEMP:  58; 6HR MAX TEMP:  66;

SAN DIEGO      PTCLDY    59  52  77 CALM      30.04F
6HR MIN TEMP:  58; 6HR MAX TEMP:  64;

BURBANK        CLEAR     63  41  44 CALM      30.05R
6HR MIN TEMP:  55; 6HR MAX TEMP:  64;

ONTARIO        PTCLDY    52  50  93 CALM      30.05F FOG
6HR MIN TEMP:  51; 6HR MAX TEMP:  58;

RIVERSIDE      PTCLDY    52  48  86 E3        30.05F
6HR MIN TEMP:  51; 6HR MAX TEMP:  57;

PALM SPRINGS   PTCLDY    55  39  54 N3        30.02R
6HR MIN TEMP:  53; 6HR MAX TEMP:  61;

EL CENTRO NAS  PTCLDY    53  44  71 CALM      29.95R
6HR MIN TEMP:  49; 6HR MAX TEMP:  60;

IMPERIAL       PTCLDY    49  43  80 W3        29.95R
6HR MIN TEMP:  49; 6HR MAX TEMP:  62;

BLYTHE         PTCLDY    55  34  45 W12       29.96R
6HR MIN TEMP:  54; 6HR MAX TEMP:  65;

NEEDLES        PTCLDY    55  30  38 N5        30.02R
6HR MIN TEMP:  53; 6HR MAX TEMP:  64;

$$

NVZ020-UTZ003-231300-
SOUTHERN NEVADA-UTAH

CITY           SKY/WX    TMP DP  RH WIND       PRES   REMARKS
LAS VEGAS      PTCLDY    57  20  23 NW21G30   30.08R
6HR MIN TEMP:  56; 6HR MAX TEMP:  64;

SALT LAKE CITY CLOUDY    34  30  85 N7        30.06R WCI  28
6HR MIN TEMP:  33; 6HR MAX TEMP:  40; 6HR PCP: TRACE;

$$

NMZ009-TXZ055-231300-
NEW MEXICO-WEST TEXAS

CITY           SKY/WX    TMP DP  RH WIND       PRES   REMARKS
ALBUQUERQUE    PTCLDY    45  20  36 W20G28    29.78F
6HR MIN TEMP:  45; 6HR MAX TEMP:  50;

EL PASO        PTCLDY    53  21  28 S13G25    29.86S
6HR MIN TEMP:  51; 6HR MAX TEMP:  56;

$$


........................KEY........................
SKY/WX - SKY CONDITION/WEATHER
TMP    - TEMPERATURE IN FAHRENHEIT
DP     - DEW POINT IN FAHRENHEIT
RH     - RELATIVE HUMIDITY IN PERCENT
WIND   - DIRECTION AND SPEED IN MILES PER HOUR (MPH)
VRB    - VARIABLE WIND DIRECTION
PRES   - MEAN SEA LEVEL PRESSURE IN INCHES OF MERCURY
         F - FALLING PRESSURE   R - RISING PRESSURE
         S - STEADY PRESSURE
VSB    - VISIBILITY IN MILES
HX     - HEAT INDEX IN FAHRENHEIT
WCI    - WIND CHILL INDEX IN FAHRENHEIT
TC     - TEMPERATURE IN CELSIUS WHICH IS ALSO KNOWN AS
         TEMPERATURE IN CENTIGRADE
AFB    - AIR FORCE BASE
         LUKE AFB IS LUKE AIR FORCE BASE
         DAVIS-MONTHAN IS DAVIS-MONTHAN AIR FORCE BASE
NAS    - NAVAL AIR STATION
         EL CENTRO NAS IS EL CENTRO NAVAL AIR STATION
N/A    - NOT AVAILABLE



USA.gov is the U.S. government's official web portal to all federal, state and local government web resources and services.